Regional Weather Roundup
Issued by NWS

Home | Current Version | Previous Version | Graphics & Text | Print | Product List | Glossary On
Versions: 1 2 3 4 5 6 7 8 9 10 11 12 13 14 15 16 17 18 19 20 21 22 23 24 25 26 27 28 29 30 31 32 33 34 35 36 37 38 39 40 41 42 43 44 45 46 47 48 49 50
000
ASUS43 KDMX 221901
RWRIA

WEATHER ROUNDUP FOR IOWA
NATIONAL WEATHER SERVICE DES MOINES IA
200 PM CDT TUE AUG 22 2017

NOTE: "FAIR" INDICATES FEW OR NO CLOUDS BELOW 12,000 FEET WITH NO
SIGNIFICANT WEATHER AND/OR OBSTRUCTIONS TO VISIBILITY.

* - THESE STATIONS ARE NOT NWS STATIONS...THUS NOT UNDER NWS
QUALITY CONTROL.  THEY ALSO DO NOT REPORT WEATHER SUCH
AS PRECIPITATION OR FOG.

IAZ001>003-012>014-020>022-031>034-043>046-222000-
   NORTHWEST IOWA

CITY           SKY/WX    TMP DP  RH WIND       PRES   REMARKS
CARROLL *      SUNNY     73  50  43 N14       30.15S
CHEROKEE *     SUNNY     73  49  44 N13G18    30.16S
DENISON *      SUNNY     72  52  49 NW12G18   30.18S
LE MARS *      SUNNY    102 N/A N/A NW12G20   30.17S
ORANGE CITY *  SUNNY     73  52  46 NW13G18   30.18S
SHELDON *      SUNNY     72  48  43 NW14G22   30.15F
SIOUX CITY     SUNNY     73  52  47 N12       30.17F
SPENCER        SUNNY     74  49  41 NW16G23   30.15S
STORM LAKE *     N/A     70  50  49 NW12G18   30.16S
$$

IAZ055>058-069>071-079>083-090>094-222000-
   SOUTHWEST IOWA

CITY           SKY/WX    TMP DP  RH WIND       PRES   REMARKS
ATLANTIC *     SUNNY     73  48  40 N13       30.16R
AUDUBON *      SUNNY     73  50  43 N12G18    30.17S
CLARINDA *     SUNNY     73  54  49 N14       30.17S
COUNCIL BLFS * SUNNY     73  52  46 N10       30.17S
CRESTON *      SUNNY     75  50  41 NW15      30.15S
HARLAN  *      SUNNY     72  50  46 N12G18    30.20S
LAMONI         SUNNY     77  49  37 NW14      30.11S
RED OAK *      SUNNY     75  50  41 N15       30.16S
SHENANDOAH *   SUNNY     75  50  41 N12       30.17S
$$

IAZ047>049-059>061-072>074-084-222000-
   CENTRAL IOWA

CITY           SKY/WX    TMP DP  RH WIND       PRES   REMARKS
AMES           SUNNY     73  54  51 N15       30.11S
ANKENY *       SUNNY     73  52  46 N12G21    30.12R
BOONE *        SUNNY     73  50  43 N17G24    30.12S
CHARITON *     MOSUNNY   75  54  46 NW12G18   30.10S
DES MOINES     MOSUNNY   77  47  34 N15       30.10S
GRINNELL*      MOSUNNY   71  55  56 NW15      30.10S
KNOXVILLE *    SUNNY     75  50  41 N16G22    30.09R
MARSHALLTOWN   SUNNY     73  53  49 NW20      30.09R
NEWTON *       SUNNY     72  54  53 N15G21    30.10S
PELLA *        SUNNY     76  52  43 N13G21    30.10S
PERRY *          N/A     74  49  41 NW12      30.13S
$$

IAZ004>006-015-016-023>025-035-036-222000-
   NORTH CENTRAL IOWA

CITY           SKY/WX    TMP DP  RH WIND       PRES   REMARKS
ALGONA *       SUNNY     72  48  43 NW16G22   30.13S
CLARION *      SUNNY     70  54  56 N14G22    30.12R
ESTHERVILLE    SUNNY     71  51  49 NW15G23   30.13F
FORT DODGE *   SUNNY     72  52  49 NW8G17    30.13R
MASON CITY     SUNNY     71  51  49 NW22      30.11S
FOREST CITY *    N/A     70  50  49 NW17G23   30.11S
WEBSTER CITY * SUNNY     72  52  49 NW13G22   30.11R
IOWA FALLS *     N/A     72  50  46 NW13G21   30.11S
$$

IAZ007>011-017>019-026>030-037>042-050>054-066-222000-
   NORTHEAST IOWA

CITY           SKY/WX    TMP DP  RH WIND       PRES   REMARKS
CEDAR RAPIDS   MOSUNNY   74  53  48 NW14G26   30.04R
CHARLES CITY * SUNNY     72  50  46 NW15G25   30.08S
CLINTON *      MOSUNNY   75  59  57 NW14G22   30.00R
DECORAH *      MOSUNNY   72  52  49 NW12      30.03S
DUBUQUE        MOSUNNY   73  54  51 NW17G24   30.01S
MONTICELLO *   MOSUNNY   75  57  53 NW16G22   30.02R
OELWEIN *      SUNNY     72  54  53 NW15G21   30.06S
WATERLOO       SUNNY     73  50  44 NW16G28   30.06R
$$

IAZ064-065-067-068-078-222000-
   EAST CENTRAL IOWA

CITY           SKY/WX    TMP DP  RH WIND       PRES   REMARKS
DAVENPORT      MOSUNNY   76  57  51 W15G23    30.02R
IOWA CITY      MOSUNNY   77  55  46 NW17G26   30.05R
MUSCATINE *    PTSUNNY   77  55  47 N15G21    30.02S
QUAD CITIES    MOSUNNY   79  55  43 W17G28    30.00R
$$

IAZ062-063-075>077-085>089-095>099-222000-
   SOUTHEAST IOWA

CITY           SKY/WX    TMP DP  RH WIND       PRES   REMARKS
BURLINGTON     MOSUNNY   78  57  48 N15G23    30.03R
FAIRFIELD *    SUNNY     75  54  46 NW17G24   30.05S
FORT MADISON * MOSUNNY   77  59  53 NW16G22   30.04R
KEOKUK *       SUNNY     79  59  50 NW12G21   30.03S HX  80
OSKALOOSA *      N/A     76  53  45 NW10G18   30.08R
OTTUMWA        SUNNY     78  50  37 NW21G28   30.06S
WASHINGTON *   MOSUNNY   75  57  53 NW18      30.06R
$$

ABBREVIATIONS USED IN REMARKS
   TC - TEMPERATURES IN CELSIUS
  WCI - WIND CHILL INDEX
   HX - HEAT INDEX
  VSB - VISIBILITY
$$





USA.gov is the U.S. government's official web portal to all federal, state and local government web resources and services.